Wetterübersicht - Weilheim in Oberbayern     570 m über NN
47°50'16'' N 11°08'49'' - - Zeitangaben in MEZ
Datum Dienstag, 15. Oktober 2019
Aktualisierung von 00:10 Uhr bis 23:50 Uhr alle 10 Minuten.
Zeit 10:50 (-1h = UTC-Zeit)
Temperatur Außen aktuell
19,2 °C
Min.(07:01)
5,9 °C
Max.(10:50)
19,2 °C
Durchschnitt
8,8 °C
Luftfeuchte Außen aktuell
63 %
Min.(10:41)
63 %
Max.(08:00)
93 %
Durchschnitt
89 %
Taupunkt aktuell
12,0 °C
Min.(06:52)
4,6 °C
Max.(10:50)
12,0 °C
Durchschnitt
6,9 °C
Luftdruck
aktuell
1006,3 hPa
fallend

-2,2 hPa/3h
Min.(10:49)
1006,3 hPa
Max.(00:31)
1011,2 hPa
Durchschnitt
1009,2 hPa
-0,9 hPa/1h -1,6 hPa/2h -3,0 hPa/6h -- hPa/12h -- hPa/24h
Solarstrahlung aktuell
548 W/m²
Max.(10:50)
548 W/m²
Durchschnitt
291 W/m²
Wettervorhersage regnerisch
Wettervorhersage VantagePro Meistens wolkig und kühler. Niederschläge wahrscheinlich. Mögliche Windänderung nach W, NW oder N.
Persönliches Wohlbefinden mäßige Wärmebelastung (19)
Windchill aktuell
19,2
Min.(07:01)
5,9
Max.(10:50)
19,2
Durchschnitt
8,8
Wind Böen aktuell
3,2 (1)
Max-Tag(06:13)
S-SW 4,8 (1)
Durchschnitt
0,7 (0)
Max Wind Böen letzte Stunde
4,8
letzten 3 Stunden
4,8
letzten 6 Stunden
4,8
Windgeschwindigkeit aktuell
1,6 (1)
Max.(07:35)
W-NW 3,2 (1)
Durchschnitt
0,2 (0)
Windrichtung 225 / SW dominierend
SW
Niederschlag
letzte Stunde 0,0
letzten 6 Stunden 0,2
aktueller Tag 0,2
aktuelle Woche 0,0
aktueller Monat 56,2
letzter Monat 80,6
Oktober Vorjahr 53,6
aktuelles Jahr 806,0
Regen / Jahr 145
Schneehöhe 22,0 10.01.2019 08:09
Trockenzeiten
letzter Regen >0,2 l/m² 15.10.2019 um 06:33 Uhr
Trocken seit 4 Stunden, 17 Minuten
Längste Trockenzeit 05.09.2015, 07:01 Uhr
bis
15.01.2016, 00:17 Uhr
Dauer: 131 Tage, 17 Stunden, 16 Minuten
Dauerfrost
Letzte Dauerfrostperiode 29.03.2019, 06:39 Uhr
bis
29.03.2019, 07:07 Uhr
Dauer: 28 Minuten
Längste Dauerfrostperiode 01.01.2017, 17:12 Uhr
bis
16.02.2017, 08:37 Uhr
Dauer: 45 Tage, 15 Stunden, 24 Minuten
Sonne
Sonnenaufgang06:33
Sonnenzenit12:01
Sonnenhöchststand33,671
Sonnenintensität aktuell743
Sonnenuntergang17:27
Sonnenaufgang morgen06:35 16. Oktober 2019
Tageslänge10:54
Bewölkungsgradsonnig 100
Sonnenschein akt. Tag2:58 Stunden
Sonnenschein letzte Stunde60
Sonnenschein Woche (bis Vortag)6:02 Stunden
Sonnenschein Monat (bis Vortag)48:06 Stunden
Mond
Alter des Mondes16 Tage, 4 Stunden, 8 Minuten
Mondaufgang18:37
Mondzenit00:53
Monduntergang07:46
Mondphase-98%
(0% = Neumond, 100% = Vollmond)
nächster Vollmond14:35 12. November 2019
nächster Neumond04:39 28. Oktober 2019
Die dargestellten Werte repräsentieren die Daten des aktuellen Tages! Der Luftdruck ist auf Meereshöhe bezogen!
Die Mond-/Sonnen-Daten beziehen sich auf die Standortkoordinaten von 47° 50' 16" Nord - 11° 8' 49" Ost
Zeit --> Mitteleuropäische Zeit
Die Wettervorhersage wurde berechnet - ohne Gewähr!

          Aussen-    Aussen                                                    Wind                              
Zeit     tempera.   Feuchte   Luftdruck   Taupunkt  Windchill      Wind       richtung     Sonne        Regen        
----------------------------------------------------------------------------------------------------------------------------
00:00      9,2      89  1011,1     7,5     9,2      0,0        N       0     0,0   
01:00      8,8      90  1011,1     7,3     8,8      0,0        N       0     0,0   
02:00      8,3      90  1010,9     6,8     8,3      0,0        N       0     0,0   
03:00      7,6      90  1010,4     6,1     7,6      0,0        N       0     0,0   
04:00      7,2      91  1009,9     5,8     7,2      0,0        N       0     0,0   
05:00      6,7      91  1009,3     5,3     6,7      0,0        N       0     0,0   
06:00      6,3      91  1008,6     4,9     6,3      0,0        N       0     0,0   
07:00      6,0      92  1008,5     4,8     6,0      0,0        N      12     0,2   
08:00      6,8      93  1008,4     5,7     6,8      0,0        N     211     0,0   
09:00     10,7      93  1007,9     9,6    10,7      1,6       SW     374     0,0   
10:00     15,6      74  1007,1    11,0    15,6      0,0        N     492     0,0   
----------------------------------------------------------------------------------------------------------------------------
Durch.     8,8      89  1009,2     6,9     8,8      0,2                           0,2

Min.       5,9      63  1006,3     4,6     5,9
Zeit       07:01     10:41      10:49       06:52     07:01

Max.      19,2      93  1011,2    12,0                  4,8              548
Zeit       10:50     08:00      00:31       10:50                  06:13                  10:50

© 1999-2016 Werner Krenn / Mischa Thurnherr - Wetterstation Bedien- und Auswertesoftware - V2.98.4

Jahres-Eistage (Tmax < 0°C) 6 Vorjahres-Eistage (Tmax < 0°C) 12
Jahres-Frostage (Tmin < 0°C) 51 Vorjahres-Frostage (Tmin < 0°C) 77
Kalte Tage des Jahres (Tmax < 10°C) 68 Kalte Tage des Vorjahres (Tmax < 10°C) 106
Jahres-Sommertage (Tmax >= 25°C) 72 Vorjahres-Sommertage (Tmax >= 25°C) 92
Heiße Tage des Jahres (Tmax >= 30°C) 28 Heiße Tage Vorjahr (Tmax >= 30°C) 21